Showing default

POEM 4, 62461

Orbit data source: Space-Track

POEM 4, 62461 is a payload satellite owned by ISRO (IN) in LEO that was launched on Mon, 30 Dec 2024 UTC via a PSLV launch vehicle from the Sirharikota (SRI). Payloads include a variety of satellites, spacecraft, and rockets equipped with specific instruments for various scientific and technological missions. These include communications satellites like Starlink; space stations such as the ISS; scientific satellites like the Hubble; Earth observation satellites from companies like Planet Labs, Umbra, and HawkEye 360; GPS; miniature CubeSats for education and research; and military/defense satellites.

Not visible in the next 10 days
POEM 4 details
Identifier
62461, 2024-253C
Orbit
LEO
Last TLE update12 hours ago
Origin
Flag of INISRO (IN / IND)
ManufacturerISRO SAC/Banga
MissionOperational Civil Technology
Bus & MotorPOEM, Unknown motor
Mass50 kg wet, ~50 kg dry
Launch date (UTC)
2024-12-30 (1 month ago)
Launch vehicle
PSLV
Launch site
Sirharikota (SRI)
Object type
Payload
Rocket body
Debris
Shape & HBRBox, 0.5 m
Radar Cross Section0.195 m², Large (>1 m²)

Expand to show TLE details & history

TLE from 12 hours ago
0 POEM 4
1 62461U 24253C   25035.77016907  .00133256  00000-0  71033-3 0  9994
2 62461  55.2204  83.7032 0011566  24.4091 335.7504 15.79498705  5671
Epoch: 2025-02-04T18:29Z
Definitive object data (Epoch: 2025-02-04T18:29:02.607Z)
Latitude0.00001°
Longitude31.27165°
Altitude325.928 km
Speed7.718 km/s
True Right ascension05h 34m 48s
True Declination0° 00' 00"
Sunlit
Object was in full shadow at TLE epoch
Visualization TLE readout
Latitude-50.30381°
Longitude-94.74691°
Altitude354.665 km
Speed7.693 km/s
Apparent Right ascension20h 39m 30s
Apparent Declination-45° 17' 59"
Sunlit
Object is in daylight
Visualization observer readout
Local Sidereal Time08:12:04
Azimuth220.884° SW
Elevation-82.624°
Doppler factor1
Orbital elements
Apogee altitude339.546 km
Perigee altitude324.025 km
Semi-major axis6,709.923 km
Eccentricity0.0011566
Inclination55.2204°
RAAN83.7032°
Arg. of periapsis24.4091°
True anomaly335.69589°
Mean anomaly335.7504°
Eccentric anomaly335.72315°
Mean motion3.94882 °/min
BSTAR0.00071033
Orbital period91.17 mins
Loading maneuver chart data...
Loading historical data...
Loading historical data...
Loading historical data...
Loading historical data...
Loading historical data...
Loading historical data...
Loading historical data...
Other satellites on launch #253 in the year 2024 (2024-12-30 UTC)

POEM 4 Visibility forecast

Observer location: undefined°, undefined

POEM 4 is not visible in the next 10 days
Span
Click to sort rows by Start time (UTC) header in descending order
Start Az.
Max El. time (UTC)
Max El. Az.
Max El.
End time (UTC)
End Az.
|